GW5098 Weather Reports


time (UTC)temp
C
wind
direction
speed
KPH
gust
KPH
rain 1hr
cm
rain 24hr
cm
rain mn
cm
humidity
%
barometer
mb
20260506002842 9 276 0.0 6.4 0.00 0.10 0.00 89 1009.9
20260506002342 9 292 1.6 9.7 0.00 0.10 0.00 89 1009.9
20260506002102 9 314 1.6 11.3 0.00 0.10 0.00 89 1009.9
20260506001337 9 349 3.2 11.3 0.00 0.10 0.00 88 1009.8
20260506000840 9 334 6.4 9.7 0.00 0.10 0.00 88 1009.8
20260506000337 9 275 0.0 6.4 0.00 0.10 0.00 88 1010.0
20260506000104 9 261 0.0 4.8 0.00 0.10 0.00 88 1010.1
20260505235336 9 343 1.6 4.8 0.00 0.10 0.00 88 1010.1
20260505234835 9 278 0.0 9.7 0.00 0.13 0.00 88 1010.0
20260505234335 9 326 4.8 9.7 0.00 0.13 0.00 88 1010.2
20260505233835 9 303 3.2 9.7 0.00 0.13 0.00 88 1010.2
20260505233334 9 347 4.8 9.7 0.00 0.13 0.00 88 1010.1
20260505232835 9 342 1.6 12.9 0.00 0.13 0.00 88 1010.1
20260505232335 9 19 9.7 12.9 0.00 0.15 0.00 88 1010.3
20260505232100 9 212 3.2 11.3 0.00 0.15 0.00 88 1010.3
20260505231335 9 335 1.6 11.3 0.00 0.18 0.00 88 1010.2
20260505230835 10 288 3.2 11.3 0.00 0.18 0.00 88 1010.3
20260505230337 10 272 4.8 9.7 0.00 0.18 0.00 88 1010.4
20260505225834 10 302 1.6 11.3 0.00 0.18 0.00 88 1010.4
20260505225330 10 266 3.2 11.3 0.00 0.20 0.00 88 1010.5
20260505225053 10 264 0.0 11.3 0.00 0.20 0.00 88 1010.5
20260505224329 10 348 6.4 11.3 0.00 0.23 0.00 88 1010.5
20260505223829 10 22 3.2 11.3 0.00 0.28 0.00 88 1010.4
20260505223329 10 309 1.6 14.5 0.00 0.33 0.00 89 1010.4
20260505222829 10 271 1.6 14.5 0.00 0.36 0.00 89 1010.6
20260505222330 10 288 3.2 6.4 0.00 0.41 0.00 89 1010.6
20260505221831 10 262 1.6 11.3 0.00 0.48 0.00 89 1010.5
20260505221330 10 2 4.8 11.3 0.00 0.58 0.00 89 1010.5
20260505220829 10 290 3.2 11.3 0.00 0.71 0.00 88 1010.6
20260505220330 10 299 1.6 9.7 0.00 0.74 0.00 89 1010.7
20260505215832 10 263 1.6 9.7 0.00 0.74 0.74 89 1010.7
20260505215600 10 352 6.4 14.5 0.00 0.74 0.74 89 1010.7
20260505214831 10 264 1.6 14.5 0.00 0.74 0.74 89 1010.7
20260505214601 10 355 0.0 9.7 0.00 0.74 0.74 89 1011.0
20260505213831 10 75 1.6 9.7 0.00 0.74 0.74 90 1010.8
20260505213331 10 358 1.6 11.3 0.00 0.76 0.74 90 1010.8
20260505212831 10 336 3.2 11.3 0.00 0.81 0.74 90 1010.9
20260505212600 10 22 3.2 9.7 0.00 0.81 0.74 90 1010.9
20260505211831 10 339 3.2 9.7 0.00 0.84 0.74 90 1010.9
20260505211331 10 285 1.6 9.7 0.00 0.84 0.74 90 1010.9
20260505210831 10 341 0.0 9.7 0.00 0.84 0.74 90 1011.0
20260505210331 10 72 0.0 11.3 0.00 0.84 0.74 90 1010.9
20260505210058 10 313 3.2 11.3 0.00 0.84 0.74 89 1011.0
20260505205329 10 354 3.2 16.1 0.00 0.84 0.74 89 1010.9
20260505204829 10 345 3.2 16.1 0.00 0.84 0.74 89 1010.8
20260505204328 10 252 1.6 9.7 0.00 0.84 0.74 89 1011.1
20260505203831 10 263 4.8 9.7 0.00 0.84 0.74 89 1011.1
20260505203559 10 279 3.2 9.7 0.00 0.84 0.74 90 1011.0
20260505202828 10 266 1.6 9.7 0.00 0.84 0.74 90 1011.0
20260505202333 10 294 0.0 4.8 0.00 0.84 0.74 90 1011.1
20260505201832 10 303 1.6 4.8 0.00 0.84 0.74 89 1011.0
20260505201331 10 328 3.2 12.9 0.00 0.84 0.74 89 1010.9
20260505201048 10 320 1.6 12.9 0.00 0.84 0.74 89 1010.7
20260505200303 10 278 1.6 14.5 0.00 0.84 0.74 89 1011.1
20260505195801 10 16 3.2 14.5 0.00 0.86 0.74 89 1011.0
20260505195308 10 5 1.6 6.4 0.00 0.89 0.74 89 1011.0
20260505195025 10 97 1.6 4.8 0.00 0.91 0.74 89 1010.9
20260505194305 10 296 0.0 4.8 0.00 0.94 0.74 89 1010.9
20260505193801 10 286 0.0 6.4 0.00 0.99 0.74 89 1010.9
20260505193302 10 317 1.6 6.4 0.00 1.02 0.74 89 1010.9
20260505192801 11 66 3.2 3.2 0.00 1.07 0.74 89 1010.8
20260505192301 11 346 3.2 9.7 0.00 1.12 0.74 89 1010.6
20260505191801 11 311 1.6 9.7 0.00 1.17 0.74 89 1010.7
20260505191302 11 34 3.2 6.4 0.00 1.32 0.74 89 1010.5
20260505190800 11 281 0.0 6.4 0.00 1.50 0.74 89 1010.5
20260505190305 11 343 3.2 6.4 0.00 1.70 0.74 89 1010.6
20260505185803 11 341 1.6 6.4 0.00 1.78 0.74 89 1010.4
20260505185305 11 57 4.8 6.4 0.00 1.93 0.74 89 1010.5
20260505185256 11 100 1.6 4.8 0.00 1.93 0.74 89 1010.6
20260505184258 11 355 1.6 4.8 0.00 1.96 0.74 89 1010.7
20260505183755 11 283 0.0 4.8 0.00 1.96 0.74 89 1010.4
20260505183257 11 351 1.6 4.8 0.00 1.96 0.74 89 1010.5
20260505182759 11 296 1.6 4.8 0.00 1.96 0.74 89 1010.5
20260505182256 11 321 1.6 4.8 0.00 1.96 0.74 88 1010.5
20260505181756 11 343 0.0 4.8 0.00 1.96 0.74 88 1010.3
20260505181520 11 315 1.6 4.8 0.00 1.96 0.74 89 1010.6
20260505180756 11 338 1.6 4.8 0.00 1.96 0.74 88 1010.4
20260505180257 11 321 4.8 4.8 0.00 1.96 0.74 88 1010.3
20260505175756 11 305 1.6 4.8 0.00 1.96 0.74 89 1010.3
20260505175530 11 347 3.2 9.7 0.00 1.96 0.74 89 1010.5
20260505174748 11 323 1.6 9.7 0.00 1.96 0.74 89 1010.6
20260505174230 11 4 4.8 6.4 0.00 1.96 0.74 89 1010.3
20260505173729 11 18 3.2 4.8 0.00 1.96 0.74 89 1010.5
20260505173230 11 35 3.2 4.8 0.00 1.96 0.74 89 1010.5
20260505172729 11 3 3.2 4.8 0.00 1.96 0.74 89 1010.5
20260505172457 11 309 3.2 3.2 0.00 1.96 0.74 89 1010.4
20260505171728 11 299 1.6 4.8 0.00 1.96 0.74 89 1010.6
20260505171231 11 269 0.0 4.8 0.00 1.96 0.74 90 1010.4
20260505170729 11 26 3.2 4.8 0.00 1.96 0.74 89 1010.4
20260505170230 11 354 1.6 9.7 0.00 1.96 0.74 89 1010.6
20260505165729 11 237 1.6 9.7 0.00 1.96 0.74 89 1010.5
20260505165230 11 40 4.8 6.4 0.00 1.96 0.74 89 1010.6
20260505164728 11 1 3.2 9.7 0.00 1.96 0.74 89 1010.6
20260505164231 11 327 0.0 9.7 0.00 1.96 0.74 89 1010.8
20260505163729 11 346 3.2 9.7 0.00 1.96 0.74 89 1010.7
20260505163231 11 30 3.2 9.7 0.00 1.98 0.74 89 1010.7
20260505162952 11 355 3.2 6.4 0.00 1.98 0.74 89 1010.8
20260505162225 11 233 1.6 6.4 0.00 1.98 0.74 89 1010.7
20260505161956 11 317 1.6 9.7 0.00 2.01 0.74 89 1010.7
20260505161224 11 50 4.8 9.7 0.00 2.01 0.74 89 1010.6
20260505160723 11 288 0.0 9.7 0.00 2.01 0.74 89 1010.9
20260505160224 11 311 4.8 6.4 0.00 2.01 0.74 89 1010.9
20260505153224 11 252 1.6 11.3 0.00 2.01 0.74 88 1010.8
20260505152724 11 22 3.2 9.7 0.00 2.01 0.74 89 1010.9
20260505152225 11 311 3.2 9.7 0.00 2.01 0.74 89 1010.9
20260505151949 11 113 1.6 9.7 0.00 2.01 0.74 89 1011.0
20260505151224 11 255 1.6 6.4 0.00 2.01 0.74 90 1011.2
20260505150723 11 307 0.0 9.7 0.00 2.01 0.74 90 1011.0
20260505150223 11 349 4.8 11.3 0.00 2.01 0.74 90 1011.0
20260505140442 11 303 0.0 11.3 0.00 2.01 0.74 90 1011.4
20260505130222 11 312 3.2 9.7 0.00 2.01 0.74 90 1011.8
20260505124720 11 49 4.8 9.7 0.00 2.01 0.74 91 1011.7
20260505124223 11 61 3.2 9.7 0.00 2.01 0.74 92 1011.7
20260505123714 11 53 6.4 9.7 0.00 2.01 0.74 93 1012.0
20260505123204 10 285 0.0 12.9 0.00 2.01 0.74 93 1011.9
20260505122702 10 286 0.0 12.9 0.00 2.01 0.74 93 1011.9
20260505122204 10 19 3.2 9.7 0.00 2.01 0.74 94 1011.9
20260505121648 10 277 3.2 11.3 0.00 2.01 0.74 94 1012.0
20260505121148 10 58 6.4 12.9 0.00 2.01 0.74 94 1012.0
20260505120647 10 347 4.8 12.9 0.00 2.01 0.74 94 1012.3
20260505120415 10 270 0.0 9.7 0.00 2.01 0.74 94 1012.2
20260505115648 10 340 3.2 9.7 0.00 2.01 0.74 94 1012.1
20260505115147 10 319 3.2 9.7 0.00 2.01 0.74 95 1012.0
20260505114648 10 330 3.2 11.3 0.00 2.01 0.74 95 1012.1
20260505114153 10 33 8.0 11.3 0.00 2.01 0.74 95 1012.2
20260505113648 10 255 1.6 9.7 0.00 2.01 0.74 95 1012.0
20260505113146 10 1 0.0 4.8 0.00 2.01 0.74 96 1012.2
20260505112648 10 41 3.2 9.7 0.00 2.01 0.74 96 1012.2
20260505112415 9 5 6.4 9.7 0.00 2.01 0.74 97 1012.4
20260505111907 9 269 4.8 9.7 0.00 2.01 0.74 97 1012.4
20260505111149 9 308 3.2 9.7 0.00 2.01 0.74 97 1012.3
20260505110858 9 242 1.6 11.3 0.00 2.01 0.74 97 1012.4
20260505110129 9 302 1.6 11.3 0.00 2.01 0.74 98 1012.6
20260505102130 9 337 3.2 9.7 0.03 2.01 0.74 99 1012.6
20260505101631 9 288 4.8 11.3 0.03 2.01 0.74 99 1012.7
20260505101116 9 256 0.0 11.3 0.03 2.01 0.74 99 1012.6
20260505100617 9 216 4.8 9.7 0.03 2.01 0.74 99 1012.5
20260505100114 9 305 1.6 9.7 0.03 2.01 0.74 99 1012.5
20260505095615 9 318 1.6 11.3 0.03 2.01 0.74 99 1012.4
20260505095338 9 1 3.2 11.3 0.03 2.01 0.74 99 1012.5
20260505094614 9 18 6.4 12.9 0.03 2.01 0.74 99 1012.4
20260505094115 9 230 3.2 12.9 0.03 2.01 0.74 99 1012.5
20260505093615 9 62 3.2 11.3 0.03 2.01 0.74 99 1012.5
20260505093350 9 33 6.4 11.3 0.03 2.01 0.74 99 1012.5
20260505092616 9 270 0.0 9.7 0.00 1.98 0.71 99 1012.6
20260505092116 9 296 1.6 6.4 0.00 1.98 0.71 99 1012.6
20260505091616 9 270 4.8 9.7 0.00 1.98 0.71 99 1012.4
20260505091115 9 289 3.2 9.7 0.00 1.98 0.71 99 1012.6
20260505090843 8 16 3.2 11.3 0.00 1.98 0.71 98 1012.4
20260505090116 8 315 1.6 11.3 0.00 1.98 0.71 98 1012.6
20260505085616 8 40 1.6 9.7 0.00 1.98 0.71 98 1012.5
20260505085116 8 251 1.6 9.7 0.00 1.98 0.71 98 1012.5
20260505084614 8 322 1.6 9.7 0.00 1.98 0.71 98 1012.7
20260505084341 8 28 6.4 9.7 0.00 1.98 0.71 98 1012.8
20260505083614 8 328 3.2 9.7 0.00 1.98 0.71 97 1012.4
20260505083345 8 343 1.6 9.7 0.00 1.98 0.71 97 1012.5
20260505082618 8 346 3.2 9.7 0.00 1.98 0.71 97 1012.6
20260505082117 8 38 6.4 11.3 0.00 1.98 0.71 97 1012.6
20260505081614 8 321 3.2 11.3 0.00 1.98 0.71 98 1012.5
20260505081112 8 325 8.0 12.9 0.00 1.98 0.71 98 1012.7
20260505080613 8 269 3.2 12.9 0.00 1.98 0.71 98 1012.6
20260505080113 8 247 1.6 9.7 0.00 1.98 0.71 98 1012.5
20260505075612 8 349 1.6 9.7 0.00 1.98 0.71 98 1012.7
20260505075114 8 337 3.2 9.7 0.00 1.98 0.71 98 1012.5
20260505074612 8 295 0.0 12.9 0.00 1.98 0.71 99 1012.4
20260505074113 8 162 1.6 12.9 0.00 1.98 0.71 99 1012.6
20260505073612 8 300 1.6 12.9 0.00 1.98 0.71 99 1012.5
20260505073113 8 6 3.2 12.9 0.00 1.98 0.71 99 1012.6
20260505072829 8 269 0.0 6.4 0.00 1.98 0.71 99 1012.7
20260505072112 8 293 3.2 6.4 0.00 1.98 0.71 99 1012.6
20260505071839 8 306 1.6 6.4 0.00 1.98 0.71 99 1012.5
20260505071114 8 347 3.2 6.4 0.00 1.98 0.71 99 1012.5
20260505070612 8 296 3.2 6.4 0.00 1.98 0.71 99 1012.7
20260505070345 8 287 3.2 6.4 0.00 1.98 0.71 99 1012.6
20260505065103 8 274 3.2 6.4 0.00 1.98 0.71 99 1012.7
20260505064834 8 327 3.2 6.4 0.00 1.98 0.71 99 1012.7
20260505064102 8 283 1.6 9.7 0.00 1.98 0.71 99 1012.7
20260505063601 8 222 4.8 9.7 0.00 1.98 0.71 99 1012.7
20260505063101 9 296 0.0 4.8 0.00 1.98 0.71 99 1012.6
20260505062600 9 304 1.6 6.4 0.00 1.98 0.71 99 1012.7
20260505062102 9 342 3.2 6.4 0.00 1.98 0.71 99 1012.6
20260505061837 9 2 3.2 11.3 0.00 1.98 0.71 99 1012.8
20260505061101 9 137 3.2 14.5 0.00 1.98 0.71 99 1012.6
20260505060602 9 289 3.2 14.5 0.00 1.98 0.71 99 1012.6
20260505055600 9 347 1.6 11.3 0.00 1.98 0.71 99 1012.8
20260505055341 9 288 1.6 6.4 0.00 1.98 0.71 99 1012.6
20260505055103 9 218 3.2 9.7 0.00 1.98 0.71 99 1012.6
20260505054108 9 250 0.0 4.8 0.00 1.98 0.71 99 1012.7
20260505053602 9 347 3.2 6.4 0.00 1.98 0.71 99 1012.6
20260505053328 9 345 1.6 6.4 0.00 1.98 0.71 99 1012.6
20260505052601 9 249 1.6 9.7 0.00 1.98 0.71 99 1012.8
20260505052101 9 333 3.2 9.7 0.00 1.98 0.71 99 1012.6
20260505051600 9 328 1.6 6.4 0.03 1.98 0.71 99 1012.6
20260505051101 9 314 3.2 6.4 0.05 1.98 0.71 99 1012.5
20260505050601 9 334 0.0 6.4 0.08 1.98 0.71 99 1012.4
20260505041538 10 272 0.0 9.7 0.05 1.96 0.69 99 1012.3
20260505041036 10 273 1.6 9.7 0.00 1.91 0.64 99 1012.1
20260505040536 10 267 3.2 9.7 0.00 1.91 0.64 99 1012.2
20260505040036 10 343 3.2 4.8 0.00 1.91 0.64 99 1012.4
20260505035757 10 248 0.0 4.8 0.00 1.91 0.64 99 1012.3
20260505035036 10 276 3.2 9.7 0.00 1.91 0.64 99 1012.3
20260505034534 10 268 3.2 9.7 0.00 1.91 0.64 99 1012.6
20260505034035 10 15 3.2 4.8 0.00 1.91 0.64 99 1012.5
20260505033535 10 344 1.6 11.3 0.00 1.91 0.64 99 1012.3
20260505033306 10 0 3.2 11.3 0.00 1.91 0.64 99 1012.4
20260505032536 10 347 3.2 6.4 0.00 1.91 0.64 99 1012.3
20260505032036 10 253 1.6 9.7 0.00 1.91 0.64 99 1012.5
20260505031536 10 283 3.2 9.7 0.00 1.91 0.64 99 1012.3
20260505031035 10 326 1.6 9.7 0.00 1.91 0.64 99 1012.3
20260505030530 10 305 1.6 11.3 0.00 1.91 0.64 99 1012.5
20260505030302 10 275 0.0 11.3 0.00 1.91 0.64 99 1012.6
20260505025759 10 326 3.2 12.9 0.00 1.91 0.64 99 1012.4
20260505025030 10 287 3.2 12.9 0.00 1.91 0.64 99 1012.6
20260505024529 10 25 6.4 14.5 0.00 1.91 0.64 99 1012.5
20260505024028 10 345 3.2 14.5 0.00 1.91 0.64 99 1012.6
20260505023529 10 13 6.4 11.3 0.00 1.91 0.64 99 1012.5
20260505023035 10 7 3.2 11.3 0.00 1.91 0.64 99 1012.6
20260505022529 10 12 3.2 11.3 0.00 1.91 0.64 99 1012.5
20260505022253 11 350 6.4 11.3 0.00 1.91 0.64 99 1012.6
20260505021529 11 281 3.2 11.3 0.00 1.91 0.64 99 1012.4
20260505021028 11 312 1.6 11.3 0.00 1.91 0.64 99 1012.5
20260505020753 11 272 3.2 9.7 0.00 1.91 0.64 99 1012.3
20260505020029 11 339 3.2 11.3 0.00 1.91 0.64 99 1012.5
20260505015751 11 0 1.6 11.3 0.00 1.91 0.64 99 1012.3
20260505015520 11 329 3.2 11.3 0.00 1.91 0.64 99 1012.4
20260505014529 11 1 4.8 11.3 0.00 1.91 0.64 99 1012.7
20260505014028 11 276 3.2 9.7 0.00 1.91 0.64 99 1012.6
20260505013529 11 269 3.2 9.7 0.00 1.91 0.64 99 1012.4
20260505013029 11 25 6.4 14.5 0.00 1.91 0.64 99 1012.5
20260505012756 11 266 3.2 14.5 0.00 1.91 0.64 99 1012.6
20260505012028 11 260 1.6 12.9 0.00 1.91 0.64 99 1012.7
20260505011529 11 266 1.6 14.5 0.00 1.91 0.64 99 1012.8
20260505011030 11 270 1.6 14.5 0.00 1.91 0.64 99 1012.6
20260505010803 11 358 1.6 11.3 0.00 1.91 0.64 99 1012.8
20260505010030 11 248 3.2 9.7 0.00 1.91 0.64 99 1012.8
20260505005803 12 346 1.6 9.7 0.00 1.91 0.64 99 1012.8
20260505005303 12 279 6.4 9.7 0.00 1.91 0.64 99 1012.7
20260505004804 12 341 4.8 9.7 0.03 1.91 0.64 99 1012.5
20260505004527 12 250 3.2 9.7 0.03 1.91 0.64 99 1012.8
20260505003530 12 259 0.0 9.7 0.03 1.91 0.64 99 1012.9